Weather in Yablonovets

Russia / Tambov Oblast     52°27′54″N   40°27′25″E
temp.,
°C
wind,
m/s
gust,
m/s
humid.,
%
clouds,
%
prec.,
mm/h
press.,
hPa
HPBL,
m
28 february, sun
sun2800:00−9nnw379519 0.0 1013188
03:00−10nnw349510 0.0 101483
06:00−9nw129688 0.1 101573
09:00−7nw369491 0.2 1016334
12:00−6nw369096 0.0 1016467
15:00−4nw468998 0.1 1016593
18:00−5n2496100 0.1 1017147
21:00−7nne349699 0.1 101992
1 march, mon
mon100:00−9n229596 0.0 102124
03:00−9nne129593 0.1 102321
06:00−7nnw1196100 0.1 102464
09:00−6nnw1393100 0.1 1026193
12:00−4w238896 0.0 1026407
15:00−2wsw358894 0.0 1026543
18:00−2wsw489197 0.0 1024371
21:00−3wsw5119199 0.0 1023352
2 march, tue
tue200:00−3wsw61294100 0.1 1020405
03:00−1wsw71393100 0.2 1017490
06:000wsw81595100 0.3 1013650
09:00+1w81497100 0.6 1010707
12:00+1wnw71399100 0.5 1009652
15:00+1nw6119498 0.8 1009712
18:00−1wnw5119077 0.1 1010327
21:00−1nw6129689 0.4 1011524
3 march, wed
wed300:00−2nw61290100 0.1 1011473
03:00−3nw5129398 0.2 1012509
06:00−4nw5129487 0.0 1012503
09:00−3nnw7118893 0.1 1014791
12:00−2nnw71183100 0.1 1016966
15:00−2nw71183100 0.1 1017993
18:00−2nw51192100 0.1 1018680
21:00−4nw4109296 0.2 1020252
4 march, thu
thu400:00−6wnw369424 0.0 1020103
03:00−6w369344 0.0 1020107
06:00−6wsw479412 0.0 1020135
09:00−4wsw510926 0.0 1019316
12:00−1wsw7118432 0.0 1017573
15:000sw7128149 0.0 1015662
18:00−1sw5148371 0.0 1012362
21:00−1sw7168443 0.0 1011511